Regional Weather Roundup
Issued by NWS Jackson, KY

Home | Current Version | Previous Version | Graphics & Text | Print | Product List | Glossary On
Versions: 1 2 3 4 5 6 7 8 9 10 11 12 13 14 15 16 17 18 19 20 21 22 23 24 25 26 27
000
ASUS43 KJKL 240710
RWRJKL

EAST KENTUCKY HOURLY WEATHER ROUNDUP
NATIONAL WEATHER SERVICE JACKSON KY
300 AM EDT SUN JUN 24 2018

NOTE: "FAIR" INDICATES FEW OR NO CLOUDS BELOW 12,000 FEET WITH
NO SIGNIFICANT WEATHER AND/OR OBSTRUCTIONS TO VISIBILITY.

* THESE REPORTS ARE NOT UNDER NWS QUALITY CONTROL AND MAY NOT
  REPORT WEATHER SUCH AS PRECIPITATION AND FOG.

KYZ079-080-083-085-087-088-110-112-115-119-120-240800
...EASTERN KENTUCKY...

CITY           SKY/WX    TMP DP  RH WIND       PRES   REMARKS
JACKSON        MOCLDY    71  68  90 CALM      29.92S
LONDON           N/A     71  68  90 CALM      29.93R
SOMERSET*      RAIN      70  70 100 CALM      29.92S
MONTICELLO*    CLOUDY    71  70  96 N10       29.92R
WILLIAMSBURG*    N/A     70  70 100 CALM      29.93R
MIDDLESBORO*   MOCLDY    67  67 100 CALM      29.94F
HARLAN APT*      N/A     69  68  98 CALM      29.94F
PIKE CO APT*   CLOUDY    70  70 100 CALM      29.93R
BIG SANDY APT* LGT RAIN  71  71 100 SW3       29.91F
MOREHEAD APT*  CLOUDY    68  66  94 CALM      29.91R
ASHLAND*       MOCLDY    69  67  93 CALM      29.88R
$$

KYZ035-036-041-042-044-050-067-078-099-240800
...CENTRAL KENTUCKY...

CITY           SKY/WX    TMP DP  RH WIND       PRES   REMARKS
MT STERLING*     N/A     70  68  94 S5        29.91R
FLEMING/MASON* MOCLDY    69  66  92 CALM      29.89S
DANVILLE*      MOCLDY    70  68  94 CALM      29.90S
LEXINGTON      CLOUDY    71  66  84 SE3       29.88S
FRANKFORT      CLOUDY    70  66  87 SE3       29.86S
LOUISVILLE     MOCLDY    74  69  85 E3        29.85R
LEBANON*         N/A     72  72 100 CALM      29.88S
GLASGOW*         N/A     73  70  88 S7        29.87S
BOWLING GREEN  CLOUDY    77  73  87 W5        29.87R
$$

KYZ091>093-OHZ055-061-077-WVZ005-015-034-035-042-240800
...SOUTHERN OHIO/WEST VIRGINIA...

CITY           SKY/WX    TMP DP  RH WIND       PRES   REMARKS
COVINGTON        N/A     67  64  90 W3        29.87S
COLUMBUS       CLOUDY    72  63  73 W8        29.84S
DAYTON         MOCLDY    67  65  93 SW8       29.87S
WILMINGTON       N/A     66  66 100 SW5       29.86S
HUNTINGTON       N/A     69  66  90 CALM      29.87F
CHARLESTON       N/A     68  67  96 CALM      29.88S
PINEVILLE*     LGT RAIN  68  67  97 MISG      30.00R
BECKLEY        CLOUDY    66  63  90 S7        29.97S
BLUEFIELD        N/A     66  64  93 W9        30.00S
LOGAN CO APT*  PTSUNNY   70  68  94 CALM      29.92F
$$

VAZ002-007-008-TNZ017-027-036-066-071-240800
...SOUTHWEST VIRGINIA/EAST TENNESSEE...

CITY           SKY/WX    TMP DP  RH WIND       PRES   REMARKS
WISE*          CLOUDY    68  68 100 SW8       30.02S
JONESVILLE*      N/A    N/A N/A N/A MISG        N/A
ABINGDON*      CLOUDY    71  67  88 W5        30.00F
BRISTOL        MOCLDY    70  68  93 SW5       29.97F
MORRISTOWN*    CLOUDY    73  68  83 VRB5      29.95F
SEVIERVILLE*   CLOUDY    72  68  88 CALM      29.94F
KNOXVILLE      CLOUDY    73  69  87 SW5       29.92F
LAFOLLETTE*    CLOUDY    70  68  94 NE6       29.97S
OAK RIDGE      CLOUDY    74  72  93 S5        29.94F
CROSSVILLE     MOCLDY    71  69  93 SW7       29.97F
NASHVILLE      MOCLDY    77  70  79 S8        29.88F
$$

...KEY TO REMARKS...
VSB - VISIBILITY IN MILES
WCI - WIND CHILL INDEX
HX  - HEAT INDEX

$$




USA.gov is the U.S. government's official web portal to all federal, state and local government web resources and services.